Tracking 30922 objects as of 2-Jul-2025
HD Live streaming from Space Station
objects crossing your sky now

OPS 4682 DEB

Track OPS 4682 DEB now!
10-day predictions


NORAD ID: 38415
Int'l Code: 1965-027DU
Perigee: 1,239.5 km
Apogee: 1,281.8 km
Inclination: 90.2 °
Period: 110.6 minutes
Semi major axis: 7631 km
RCS: 0.0106 m2 (small)
Launch date: April 3, 1965
Source: United States (US)
Launch site: AIR FORCE WESTERN TEST RANGE (AFWTR)

Note: This is SATELLITE DEBRIS
Your satellite tracking list
Your tracking list is empty




NASA's NSSDC Master Catalog

Two Line Element Set (TLE):
1 38415U 65027DU  25181.75681194 -.00000107  00000-0 -36910-3 0  9991
2 38415  90.2429   6.5146 0027702 330.3304  29.6247 13.02192263569194
Source of the keplerian elements: AFSPC